Location: Ballingbuur
(53.0000°N, 5.7667°E)
Time: 06:43:12
(UTC+00:00)

NOSS 3-4 (A) - Pass Details

Date: 29 November 2020
Orbit: 879 x 1333 km, 63.4° (Epoch: 22 January)

Event Time Altitude Azimuth Distance (km) Brightness Sun altitude
Exits shadow 04:00:53 37° 174° (S) 1,389 4.2 -29.7°
Maximum altitude 04:02:50 50° 125° (SE) 1,159 4.1 -29.4°
Drops below altitude 10° 04:08:56 10° 52° (NE) 2,749 6.5 -28.5°
Sets 04:11:42 0° 47° (NE) 3,766 7.2 -28.0°
